Kalaeloa, HI

9:55 PM HST on August 18, 2017 (GMT -1000)
Kalaeloa (John Rodgers Field)

Weather History for PHJR - April, 2013

Change the Weather History Date:

Friday, April 26, 2013

  Actual Average (PHHI) Record (PHHI)
Temperature  
Mean Temperature 72 °F -  
Max Temperature 80 °F 76 °F 82 °F (2008)
Min Temperature 64 °F 62 °F 57 °F (2005)
Cooling Degree Days 7    
Growing Degree Days 22 (Base 50)    
Moisture  
Dew Point 63 °F    
Average Humidity 77    
Maximum Humidity 100    
Minimum Humidity 52    
Precipitation  
Precipitation 0.00 in - - ()
Sea Level Pressure  
Sea Level Pressure 30.06 in    
Wind  
Wind Speed 3 mph (East)    
Max Wind Speed 12 mph    
Max Gust Speed 20 mph    
Visibility 10 miles    
Events      
Averages and records for this station are not official NWS values.
T = Trace of Precipitation, MM = Missing Value Source: NWS Daily Summary

Daily Weather History Graph

Daily Weather History Graph

Search for Another Location

Airport or City:

Trip Planner

Search our weather history database for the weather conditions in past years. The results will help you decide how hot, cold, wet, or windy it might be!

Date:

Astronomy

Apr. 26, 2013 Rise Set
Actual Time 6:04 AM HST 6:55 PM HST
Civil Twilight 5:41 AM HST 7:18 PM HST
Nautical Twilight 5:14 AM HST 7:46 PM HST
Astronomical Twilight 4:46 AM HST 8:13 PM HST
Moon 8:20 PM HST (4/26) 6:48 AM HST (4/26)
Length of Visible Light 13h 37m
Length of Day
12h 51m
Full, 98% of the Moon is Illuminated
Apr 26
Full
May 2
Last Quarter
May 9
New
May 17
First Quarter
May 24
Full

Hourly Weather History & Observations

Time (HST) Temp. Heat Index Dew Point Humidity Pressure Visibility Wind Dir Wind Speed Gust Speed Precip Events Conditions
12:53 AM 66.9 °F - 63.0 °F 87% 30.07 in 10.0 mi Calm Calm - N/A   Clear
1:53 AM 64.9 °F - 63.0 °F 93% 30.07 in 10.0 mi Calm Calm - N/A   Clear
2:53 AM 66.0 °F - 63.0 °F 90% 30.06 in 10.0 mi Calm Calm - N/A   Clear
3:39 AM 64.4 °F - 64.4 °F 100% 30.03 in 10.0 mi Calm Calm - N/A   Partly Cloudy
3:53 AM 64.9 °F - 63.0 °F 93% 30.05 in 10.0 mi Calm Calm - N/A   Clear
4:53 AM 64.0 °F - 63.0 °F 96% 30.05 in 10.0 mi Calm Calm - N/A   Clear
5:53 AM 64.0 °F - 63.0 °F 96% 30.05 in 10.0 mi Calm Calm - N/A   Clear
6:53 AM 66.9 °F - 64.0 °F 90% 30.06 in 10.0 mi Calm Calm - N/A   Clear
7:53 AM 72.0 °F - 64.0 °F 76% 30.08 in 10.0 mi Variable 4.6 mph - N/A   Clear
8:53 AM 75.0 °F - 62.1 °F 64% 30.08 in 10.0 mi East 10.4 mph 19.6 mph N/A   Clear
9:53 AM 78.1 °F - 62.1 °F 58% 30.08 in 10.0 mi East 11.5 mph 17.3 mph N/A   Clear
10:53 AM 78.1 °F - 63.0 °F 60% 30.08 in 10.0 mi ESE 9.2 mph 18.4 mph N/A   Mostly Cloudy
11:53 AM 79.0 °F - 64.0 °F 60% 30.07 in 10.0 mi East 8.1 mph 18.4 mph N/A   Mostly Cloudy
12:53 PM 78.1 °F - 62.1 °F 58% 30.06 in 10.0 mi Variable 6.9 mph - N/A   Scattered Clouds
1:53 PM 80.1 °F 81.1 °F 61.0 °F 52% 30.04 in 10.0 mi East 8.1 mph 18.4 mph N/A   Mostly Cloudy
2:53 PM 78.1 °F - 62.1 °F 58% 30.02 in 10.0 mi East 6.9 mph - N/A   Mostly Cloudy
3:53 PM 78.1 °F - 61.0 °F 56% 30.02 in 10.0 mi East 6.9 mph - N/A   Mostly Cloudy
4:53 PM 78.1 °F - 62.1 °F 58% 30.01 in 10.0 mi Variable 6.9 mph - N/A   Mostly Cloudy
5:53 PM 77.0 °F - 62.1 °F 60% 30.03 in 10.0 mi ENE 5.8 mph - N/A   Mostly Cloudy
6:53 PM 73.0 °F - 62.1 °F 68% 30.04 in 10.0 mi ENE 4.6 mph - N/A   Clear
7:53 PM 71.1 °F - 63.0 °F 75% 30.06 in 10.0 mi ENE 3.5 mph - N/A   Clear
8:53 PM 70.0 °F - 64.0 °F 81% 30.07 in 10.0 mi Calm Calm - N/A   Clear
9:53 PM 66.9 °F - 63.0 °F 87% 30.08 in 10.0 mi Calm Calm - N/A   Clear
10:53 PM 66.9 °F - 63.0 °F 87% 30.09 in 10.0 mi Calm Calm - N/A   Clear
11:22 PM 64.4 °F - 62.6 °F 94% 30.07 in 10.0 mi Calm Calm - N/A   Partly Cloudy
11:53 PM 64.9 °F - 63.0 °F 93% 30.08 in 10.0 mi Calm Calm - N/A   Clear